Home > Weather > Saint-Petersburg > Past weeks

Flag for Russia Weather for the Past 2 Weeks in Saint-Petersburg, Russia

Now
32 °F

Passing clouds.


Feels Like: 24 °F
Forecast: 31 / 36 °F
Wind: 10 mph from Southeast

Location: St. Petersburg

Current Time: Feb 14, 2016 at 3:03:05 AM

Latest Report: Feb 14, 2016 at 2:00 AM


Visibility: N/A

Pressure: 29.86 "Hg

Humidity: 87%

Dew point: 28 °F

Location of Saint-PetersburgLocation

Historic Weather in Saint-Petersburg — Graph

°F

Saint-Petersburg Temperature Yesterday

Maximum temperature yesterday: 39 °F (at 1:30 PM)
Minimum temperature yesterday: 34 °F (at 1:00 AM)
Average temperature yesterday: 36 °F

High & Low Weather Summary for the Past Weeks

 TemperatureHumidityPressure
High41 °F (Jan 30, 1:30 PM)100% (Jan 31, 6:30 AM)30.04 "Hg (Jan 31, 6:30 AM)
Low18 °F (Feb 6, 5:00 AM)74% (Feb 6, 4:30 PM)28.82 "Hg (Feb 2, 2:30 PM)
Average34 °F88%29.47 "Hg
* Reported Jan 30 1:00 AM — Feb 14 1:30 AM, Saint-Petersburg, Weather by CustomWeather, © 2016

Note: Actual official high and low records may vary slightly from our data, if they occured in-between our weather recording intervals... More about our weather records

Advertising

Saint-Petersburg Weather History for the Previous 24 Hours

 ConditionsComfort  
Time TempWeatherWind HumidityBarometerVisibility
1:30 AM
Sun, Feb 14
32 °FPassing clouds.10 mph87%29.86 "HgN/A
12:30 AM32 °FClear.8 mph87%29.86 "Hg10 mi
12:00 AM32 °FClear.10 mph93%29.86 "Hg10 mi
11:30 PM
Sat, Feb 13
34 °FClear.10 mph87%29.86 "Hg10 mi
11:00 PM34 °FClear.10 mph87%29.86 "Hg10 mi
10:30 PM34 °FClear.10 mph87%29.86 "Hg10 mi
10:00 PM36 °FPassing clouds.10 mph81%29.86 "HgN/A
9:30 PM36 °FPassing clouds.8 mph87%29.86 "HgN/A
9:00 PM36 °FPassing clouds.8 mph87%29.86 "HgN/A
8:30 PM36 °FPassing clouds.8 mph87%29.86 "HgN/A
8:00 PM36 °FPassing clouds.8 mph87%29.86 "HgN/A
7:30 PM36 °FPassing clouds.10 mph87%29.86 "HgN/A
7:00 PM36 °FPassing clouds.10 mph87%29.86 "HgN/A
6:30 PM37 °FPartly sunny.13 mph81%29.86 "HgN/A
6:00 PM37 °FPartly sunny.10 mph81%29.86 "HgN/A
5:30 PM37 °FPartly sunny.8 mph81%29.86 "HgN/A
5:00 PM36 °FPartly sunny.10 mph81%29.86 "HgN/A
4:30 PM37 °FPartly sunny.8 mph75%29.86 "HgN/A
4:00 PM37 °FPartly sunny.13 mph81%29.86 "HgN/A
3:30 PM39 °FPartly sunny.10 mph75%29.86 "HgN/A
3:00 PM37 °FPartly sunny.13 mph81%29.86 "HgN/A
2:30 PM37 °FPartly sunny.13 mph81%29.86 "HgN/A
2:00 PM37 °FPartly sunny.13 mph81%29.83 "HgN/A
1:30 PM39 °FScattered clouds.13 mph75%29.83 "HgN/A
1:00 PM37 °FScattered clouds.15 mph81%29.83 "HgN/A
12:30 PM37 °FPartly sunny.13 mph81%29.83 "HgN/A
12:00 PM37 °FScattered clouds.13 mph81%29.83 "HgN/A
11:30 AM36 °FScattered clouds.13 mph87%29.83 "HgN/A
11:00 AM36 °FScattered clouds.10 mph87%29.80 "HgN/A
10:30 AM36 °FSprinkles. Broken clouds.13 mph87%29.80 "HgN/A
10:00 AM36 °FBroken clouds.10 mph87%29.80 "HgN/A
9:30 AM36 °FPassing clouds.13 mph87%29.77 "HgN/A
9:00 AM36 °FPassing clouds.13 mph87%29.77 "HgN/A
8:30 AM36 °FPassing clouds.10 mph87%29.77 "HgN/A
8:00 AM36 °FPassing clouds.10 mph87%29.77 "HgN/A
7:30 AM36 °FPassing clouds.8 mph87%29.74 "HgN/A
7:00 AM36 °FPassing clouds.8 mph87%29.74 "HgN/A
6:30 AM36 °FLight rain. Passing clouds.8 mph87%29.74 "HgN/A
6:00 AM36 °FPassing clouds.8 mph87%29.74 "HgN/A
5:30 AM36 °FPassing clouds.8 mph87%29.74 "HgN/A
5:00 AM36 °FLight rain. Partly cloudy.10 mph87%29.74 "HgN/A
4:30 AM36 °FPartly cloudy.8 mph87%29.71 "HgN/A
4:00 AM36 °FPartly cloudy.8 mph87%29.71 "HgN/A
3:30 AM34 °FPartly cloudy.8 mph93%29.71 "HgN/A
3:00 AM34 °FPartly cloudy.6 mph93%29.71 "HgN/A
Weather by CustomWeather, © 2016

See weather overviewHow to use our weather pages